[Iaude] MPEC K184: 2020 KC5 [a=2.04,e=0.52,i=4.6,H=27.3]

mpec at marsden.cfa.harvard.edu mpec at marsden.cfa.harvard.edu
Tue May 26 20:33:05 EDT 2020


M.P.E.C. 2020-K184                                 Issued 2020 May 27, 00:29 UT

     The Minor Planet Electronic Circulars contain information on unusual
         minor planets and routine data on comets.  They are published
    on behalf of Division F of the International Astronomical Union by the
          Minor Planet Center, Smithsonian Astrophysical Observatory,
                          Cambridge, MA 02138, U.S.A.

             Prepared using the Tamkin Foundation Computer Network

                              MPC at CFA.HARVARD.EDU
            URL https://www.minorplanetcenter.net/    ISSN 1523-6714

                                    2020 KC5                                    


Observations:
     K20K05C* C2020 05 26.36534413 57 36.841+14 41 29.60         20.35wUEK184F52
     K20K05C  C2020 05 26.37719613 57 37.485+14 42 52.30         20.49wUEK184F52
     K20K05C  C2020 05 26.40086113 57 38.943+14 45 36.96         20.21wUEK184F52
     K20K05C KC2020 05 26.86376014 00 05.83 +15 46 01.3          20.2 GVEK184L01
     K20K05C KC2020 05 26.86640614 00 06.25 +15 46 26.8          20.2 GVEK184L01
     K20K05C KC2020 05 26.86905114 00 06.75 +15 46 51.5          20.4 GVEK184L01
     K20K05C KC2020 05 26.87169514 00 07.15 +15 47 16.9          20.3 GVEK184L01
     K20K05C KC2020 05 26.87458014 00 07.63 +15 47 44.1          20.1 GVEK184L01
     K20K05C KC2020 05 26.94481314 00 26.58 +15 59 10.7          19.7 GUEK184I93
     K20K05C KC2020 05 26.94796614 00 27.17 +15 59 41.6          19.6 GUEK184I93
     K20K05C KC2020 05 26.95110614 00 29.31 +15 59 14.8          19.9 GVEK184J95
     K20K05C KC2020 05 26.95546014 00 30.21 +15 59 57.1          19.8 GVEK184J95
     K20K05C KC2020 05 26.95554114 00 28.59 +16 00 55.4          19.6 GUEK184I93
     K20K05C KC2020 05 26.95929814 00 31.02 +16 00 35.2          20.2 GVEK184J95

Observer details:
F52 Pan-STARRS 2, Haleakala.  Observers J. Bulger, T. Dukes, T. Lowe, A.
    Schultz, M. Willman.  Measurers K. Chambers, S. Chastel, T. de Boer, L.
    Denneau, J. Fairlamb, H. Flewelling, M. Huber, C.-C. Lin, E. Magnier, Y.
    Ramanjooloo, R. Wainscoat, R. Weryk.  1.8-m Ritchey-Chretien + CCD.
I93 St Pardon de Conques.  Observer F. Losse.  0.40-m f/3.7 reflector + CCD.
J95 Great Shefford.  Observer P. Birtwhistle.  0.41-m f/6.3 Schmidt-Cassegrain
    + CCD.
L01 Visnjan Observatory, Tican.  Observer K. Korlevic.  1.0-m f/2.9 reflector
    + CCD.

Orbital elements:
2020 KC5                                                 Earth MOID = 0.0023 AU
Epoch 2020 May 31.0 TT = JDT 2459000.5                  Spoto
M 353.26722              (2000.0)            P               Q
n   0.33893414     Peri.  204.02677     +0.07574675     +0.99423879
a   2.0373196      Node    70.38890     -0.90131230     +0.10080182
e   0.5194493      Incl.    4.61788     -0.42649569     -0.03644485
P   2.91           H   27.3           G   0.15           U   7
Residuals in seconds of arc
200526 F52  0.2+  0.1-    200526 L01  0.3+  0.1-    200526 J95  0.2+  0.0
200526 F52  0.0   0.0     200526 L01  0.4-  0.3+    200526 J95  0.1+  0.4-
200526 F52  0.0   0.0     200526 L01  0.5-  0.2+    200526 I93  0.2-  0.3+
200526 L01  0.1-  0.2-    200526 I93  0.3-  0.6+    200526 J95  0.1+  0.0
200526 L01  0.5-  0.3+    200526 I93  0.2-  0.7+

Ephemeris:
2020 KC5                 a,e,i = 2.04, 0.52, 5                   q = 0.9790
Date    TT    R. A. (2000) Decl.     Delta      r    Elong.  Phase     V
2020 04 27    13 53 45.9 +05 49 09   0.1801  1.1769   159.4    17.5    24.8
...
2020 05 12    13 49 29.3 +08 15 56   0.09429 1.0897   146.0    31.2    23.7
...
2020 05 20    13 49 25.7 +09 59 16   0.05173 1.0511   138.2    39.9    22.6
...
2020 05 26    13 56 21.3 +14 03 01   0.02041 1.0268   131.6    47.6    20.7
2020 05 27    14 00 53.4 +16 12 58   0.01525 1.0231   130.0    49.4    20.1
2020 05 28    14 10 30.1 +20 32 06   0.01013 1.0196   127.4    52.1    19.3
...
2020 06 03    01 33 51.3 -03 09 46   0.02172 1.0014    53.1   125.9    24.3
...
2020 06 11    01 43 34.6 -06 47 17   0.06342 0.9854    60.2   116.6    25.9
...
2020 06 26    01 52 39.8 -06 55 48   0.1398  0.9821    71.9   100.3    26.6

M. P. C. Staff               (C) Copyright 2020 MPC           M.P.E.C. 2020-K184




More information about the Iaude mailing list